Time,TemperatureF,DewpointF,PressureIn,WindDirection,WindDirectionDegrees,WindSpeedMPH,WindSpeedGustMPH,Humidity,HourlyPrecipIn,Conditions,Clouds,dailyrainin,SoftwareType,DateUTC
2013-04-29 00:02:00,53.0,52.0,29.94,South,180,1.0,2.0,97,0.00,,,0.00,Rainwise IP-100,2013-04-29 05:02:00,
2013-04-29 00:07:00,53.0,52.0,29.94,South,180,3.0,4.0,97,0.00,,,0.00,Rainwise IP-100,2013-04-29 05:07:00,
2013-04-29 00:12:00,53.0,52.0,29.95,South,180,5.0,5.0,97,0.00,,,0.00,Rainwise IP-100,2013-04-29 05:12:00,
2013-04-29 00:17:00,53.0,52.0,29.95,SSW,202,4.0,6.0,97,0.00,,,0.00,Rainwise IP-100,2013-04-29 05:17:00,
2013-04-29 00:22:00,53.0,52.0,29.95,SW,225,4.0,5.0,97,0.00,,,0.00,Rainwise IP-100,2013-04-29 05:22:00,
2013-04-29 00:27:00,53.0,52.0,29.95,SSW,202,3.0,4.0,97,0.00,,,0.00,Rainwise IP-100,2013-04-29 05:27:00,
2013-04-29 00:32:00,53.0,52.0,29.95,SSW,202,2.0,3.0,97,0.00,,,0.00,Rainwise IP-100,2013-04-29 05:32:00,
2013-04-29 00:37:00,52.0,51.0,29.95,SSW,202,3.0,3.0,97,0.00,,,0.00,Rainwise IP-100,2013-04-29 05:37:00,
2013-04-29 00:42:00,52.0,51.0,29.96,SSW,202,2.0,3.0,97,0.00,,,0.00,Rainwise IP-100,2013-04-29 05:42:00,
2013-04-29 00:47:00,52.0,51.0,29.96,SSW,202,3.0,3.0,97,0.00,,,0.00,Rainwise IP-100,2013-04-29 05:47:00,
2013-04-29 00:52:00,52.0,51.0,29.96,SW,225,3.0,3.0,97,0.00,,,0.00,Rainwise IP-100,2013-04-29 05:52:00,
2013-04-29 00:57:00,52.0,51.0,29.95,SW,225,2.0,4.0,97,0.00,,,0.00,Rainwise IP-100,2013-04-29 05:57:00,
2013-04-29 01:02:00,52.0,51.0,29.96,SW,225,1.0,4.0,97,0.00,,,0.00,Rainwise IP-100,2013-04-29 06:02:00,
2013-04-29 01:07:00,52.0,51.0,29.96,SW,225,0.0,2.0,97,0.00,,,0.00,Rainwise IP-100,2013-04-29 06:07:00,
2013-04-29 01:12:00,52.0,51.0,29.96,SW,225,1.0,2.0,97,0.00,,,0.00,Rainwise IP-100,2013-04-29 06:12:00,
2013-04-29 01:17:00,52.0,51.0,29.96,SW,225,1.0,2.0,97,0.00,,,0.00,Rainwise IP-100,2013-04-29 06:17:00,
2013-04-29 01:22:00,52.0,51.0,29.96,SW,225,2.0,2.0,97,0.00,,,0.00,Rainwise IP-100,2013-04-29 06:22:00,
2013-04-29 01:27:00,52.0,51.0,29.96,SW,225,0.0,2.0,97,0.00,,,0.00,Rainwise IP-100,2013-04-29 06:27:00,
2013-04-29 01:32:00,52.0,51.0,29.96,SW,225,0.0,0.0,97,0.00,,,0.00,Rainwise IP-100,2013-04-29 06:32:00,
2013-04-29 01:37:00,52.0,51.0,29.96,SW,225,0.0,0.0,97,0.00,,,0.00,Rainwise IP-100,2013-04-29 06:37:00,
2013-04-29 01:42:00,51.0,50.5,29.96,SW,225,0.0,0.0,97,0.00,,,0.00,Rainwise IP-100,2013-04-29 06:42:00,
2013-04-29 01:47:00,51.0,50.5,29.95,SW,225,0.0,0.0,97,0.00,,,0.00,Rainwise IP-100,2013-04-29 06:47:00,
2013-04-29 01:52:00,51.0,50.5,29.95,SW,225,0.0,3.0,97,0.00,,,0.00,Rainwise IP-100,2013-04-29 06:52:00,
2013-04-29 01:57:00,50.0,49.0,29.96,SW,225,3.0,3.0,97,0.00,,,0.00,Rainwise IP-100,2013-04-29 06:57:00,
2013-04-29 02:02:00,51.0,50.5,29.95,SW,225,3.0,5.0,97,0.00,,,0.00,Rainwise IP-100,2013-04-29 07:02:00,
2013-04-29 02:07:00,51.0,50.5,29.95,SSW,202,2.0,5.0,97,0.00,,,0.00,Rainwise IP-100,2013-04-29 07:07:00,
2013-04-29 02:12:00,52.0,51.0,29.95,SW,225,5.0,5.0,97,0.00,,,0.00,Rainwise IP-100,2013-04-29 07:12:00,
2013-04-29 02:17:00,52.0,51.0,29.95,South,180,3.0,6.0,97,0.00,,,0.00,Rainwise IP-100,2013-04-29 07:17:00,
2013-04-29 02:22:00,52.0,51.0,29.95,SW,225,1.0,3.0,97,0.00,,,0.00,Rainwise IP-100,2013-04-29 07:22:00,
2013-04-29 02:27:00,52.0,51.0,29.94,SW,225,2.0,5.0,97,0.00,,,0.00,Rainwise IP-100,2013-04-29 07:27:00,
2013-04-29 02:32:00,52.0,51.0,29.95,SSW,202,2.0,5.0,97,0.00,,,0.00,Rainwise IP-100,2013-04-29 07:32:00,
2013-04-29 02:37:00,52.0,51.0,29.95,SSW,202,0.0,4.0,97,0.00,,,0.00,Rainwise IP-100,2013-04-29 07:37:00,
2013-04-29 02:42:00,52.0,51.0,29.95,SSW,202,6.0,6.0,97,0.00,,,0.00,Rainwise IP-100,2013-04-29 07:42:00,
2013-04-29 02:47:00,52.0,51.0,29.95,South,180,0.0,7.0,97,0.00,,,0.00,Rainwise IP-100,2013-04-29 07:47:00,
2013-04-29 02:52:00,53.0,52.0,29.95,SSW,202,3.0,4.0,97,0.00,,,0.00,Rainwise IP-100,2013-04-29 07:52:00,
2013-04-29 02:57:00,53.0,52.0,29.95,SSW,202,4.0,5.0,97,0.00,,,0.00,Rainwise IP-100,2013-04-29 07:57:00,
2013-04-29 03:02:00,53.0,52.0,29.95,SW,225,3.0,6.0,97,0.00,,,0.00,Rainwise IP-100,2013-04-29 08:02:00,
2013-04-29 03:07:00,53.0,52.0,29.95,SSW,202,1.0,6.0,97,0.00,,,0.00,Rainwise IP-100,2013-04-29 08:07:00,
2013-04-29 03:12:00,53.0,52.0,29.95,South,180,3.0,4.0,97,0.00,,,0.00,Rainwise IP-100,2013-04-29 08:12:00,
2013-04-29 03:17:00,53.0,52.0,29.95,SSW,202,2.0,5.0,97,0.00,,,0.00,Rainwise IP-100,2013-04-29 08:17:00,
2013-04-29 03:22:00,53.0,52.0,29.95,South,180,1.0,3.0,97,0.00,,,0.00,Rainwise IP-100,2013-04-29 08:22:00,
2013-04-29 03:27:00,53.0,52.0,29.95,South,180,3.0,6.0,97,0.00,,,0.00,Rainwise IP-100,2013-04-29 08:27:00,
2013-04-29 03:32:00,53.0,52.0,29.95,South,180,2.0,7.0,97,0.00,,,0.00,Rainwise IP-100,2013-04-29 08:32:00,
2013-04-29 03:37:00,53.0,52.0,29.95,SW,225,2.0,5.0,97,0.00,,,0.00,Rainwise IP-100,2013-04-29 08:37:00,
2013-04-29 03:42:00,53.0,52.0,29.96,South,180,2.0,3.0,97,0.00,,,0.00,Rainwise IP-100,2013-04-29 08:42:00,
2013-04-29 03:47:00,53.0,52.0,29.96,SSW,202,4.0,4.0,97,0.00,,,0.00,Rainwise IP-100,2013-04-29 08:47:00,
2013-04-29 03:52:00,53.0,52.0,29.95,SSW,202,1.0,5.0,97,0.00,,,0.00,Rainwise IP-100,2013-04-29 08:52:00,
2013-04-29 03:57:00,53.0,52.0,29.95,SSW,202,1.0,3.0,97,0.00,,,0.00,Rainwise IP-100,2013-04-29 08:57:00,
2013-04-29 04:02:00,53.0,52.0,29.95,SSW,202,0.0,2.0,97,0.00,,,0.00,Rainwise IP-100,2013-04-29 09:02:00,
2013-04-29 04:07:00,53.0,52.0,29.95,SSW,202,1.0,2.0,97,0.00,,,0.00,Rainwise IP-100,2013-04-29 09:07:00,
2013-04-29 04:12:00,53.0,52.0,29.95,SW,225,1.0,4.0,97,0.00,,,0.00,Rainwise IP-100,2013-04-29 09:12:00,
2013-04-29 04:17:00,53.0,52.0,29.95,SSW,202,2.0,4.0,97,0.00,,,0.00,Rainwise IP-100,2013-04-29 09:17:00,
2013-04-29 04:22:00,53.0,52.0,29.95,SSW,202,2.0,4.0,97,0.00,,,0.00,Rainwise IP-100,2013-04-29 09:22:00,
2013-04-29 04:27:00,53.0,52.0,29.96,South,180,3.0,3.0,97,0.00,,,0.00,Rainwise IP-100,2013-04-29 09:27:00,
2013-04-29 04:32:00,53.0,52.0,29.96,SSW,202,0.0,3.0,97,0.00,,,0.00,Rainwise IP-100,2013-04-29 09:32:00,
2013-04-29 04:37:00,53.0,52.0,29.96,NW,315,3.0,3.0,97,0.00,,,0.00,Rainwise IP-100,2013-04-29 09:37:00,
2013-04-29 04:42:00,53.0,52.0,29.96,SSE,157,3.0,3.0,97,0.00,,,0.00,Rainwise IP-100,2013-04-29 09:42:00,
2013-04-29 04:47:00,53.0,52.0,29.96,SE,135,0.0,4.0,97,0.00,,,0.00,Rainwise IP-100,2013-04-29 09:47:00,
2013-04-29 04:52:00,53.0,52.0,29.96,SE,135,0.0,3.0,97,0.00,,,0.00,Rainwise IP-100,2013-04-29 09:52:00,
2013-04-29 04:57:00,53.0,52.0,29.96,SE,135,3.0,3.0,97,0.00,,,0.00,Rainwise IP-100,2013-04-29 09:57:00,
2013-04-29 05:02:00,53.0,52.0,29.96,SE,135,0.0,4.0,97,0.00,,,0.00,Rainwise IP-100,2013-04-29 10:02:00,
2013-04-29 05:07:00,53.0,52.0,29.97,SE,135,0.0,0.0,97,0.00,,,0.00,Rainwise IP-100,2013-04-29 10:07:00,
2013-04-29 05:12:00,53.0,52.0,29.97,SSW,202,2.0,2.0,97,0.00,,,0.00,Rainwise IP-100,2013-04-29 10:12:00,
2013-04-29 05:17:00,53.0,52.0,29.97,SSW,202,2.0,6.0,97,0.00,,,0.00,Rainwise IP-100,2013-04-29 10:17:00,
2013-04-29 05:22:00,53.0,52.0,29.97,SSW,202,3.0,4.0,97,0.00,,,0.00,Rainwise IP-100,2013-04-29 10:22:00,
2013-04-29 05:27:00,53.0,52.0,29.97,SSW,202,2.0,6.0,97,0.00,,,0.00,Rainwise IP-100,2013-04-29 10:27:00,
2013-04-29 05:32:00,53.0,52.0,29.97,SW,225,3.0,6.0,97,0.00,,,0.00,Rainwise IP-100,2013-04-29 10:32:00,
2013-04-29 05:37:00,53.0,52.0,29.97,South,180,3.0,4.0,97,0.00,,,0.00,Rainwise IP-100,2013-04-29 10:37:00,
2013-04-29 05:42:00,53.0,52.0,29.97,SW,225,1.0,3.0,97,0.00,,,0.00,Rainwise IP-100,2013-04-29 10:42:00,
2013-04-29 05:47:00,53.0,52.0,29.97,SSE,157,2.0,4.0,97,0.00,,,0.00,Rainwise IP-100,2013-04-29 10:47:00,
2013-04-29 05:52:00,53.0,52.0,29.97,South,180,0.0,3.0,97,0.00,,,0.00,Rainwise IP-100,2013-04-29 10:52:00,
2013-04-29 05:53:00,53.0,52.0,29.97,South,180,0.0,3.0,97,0.00,,,0.00,Rainwise IP-100,2013-04-29 10:53:00,
2013-04-29 05:58:00,53.0,52.0,29.97,NE,45,0.0,2.0,97,0.00,,,0.00,Rainwise IP-100,2013-04-29 10:58:00,
2013-04-29 06:03:00,53.0,52.0,29.98,SSE,157,0.0,1.0,97,0.00,,,0.00,Rainwise IP-100,2013-04-29 11:03:00,
2013-04-29 06:08:00,53.0,52.0,29.98,SW,225,0.0,0.0,97,0.00,,,0.00,Rainwise IP-100,2013-04-29 11:08:00,
2013-04-29 06:13:00,53.0,52.0,29.98,SW,225,0.0,0.0,97,0.00,,,0.00,Rainwise IP-100,2013-04-29 11:13:00,
2013-04-29 06:18:00,53.0,52.0,29.98,ENE,67,0.0,0.0,97,0.00,,,0.00,Rainwise IP-100,2013-04-29 11:18:00,
2013-04-29 06:23:00,53.0,52.0,29.99,WNW,292,0.0,1.0,97,0.00,,,0.00,Rainwise IP-100,2013-04-29 11:23:00,
2013-04-29 06:28:00,53.0,52.0,29.99,WNW,292,1.0,3.0,97,0.00,,,0.00,Rainwise IP-100,2013-04-29 11:28:00,
2013-04-29 06:33:00,53.0,52.0,29.99,NE,45,0.0,2.0,97,0.00,,,0.00,Rainwise IP-100,2013-04-29 11:33:00,
2013-04-29 06:38:00,53.0,52.0,29.99,SSW,202,0.0,0.0,97,0.00,,,0.00,Rainwise IP-100,2013-04-29 11:38:00,
2013-04-29 06:43:00,53.0,52.0,29.99,SW,225,0.0,0.0,97,0.00,,,0.00,Rainwise IP-100,2013-04-29 11:43:00,
2013-04-29 06:48:00,53.0,52.0,29.99,SW,225,0.0,0.0,97,0.00,,,0.00,Rainwise IP-100,2013-04-29 11:48:00,
2013-04-29 06:53:00,53.0,52.0,29.99,SW,225,0.0,0.0,97,0.00,,,0.00,Rainwise IP-100,2013-04-29 11:53:00,
2013-04-29 06:58:00,53.0,52.0,29.99,SW,225,0.0,0.0,97,0.00,,,0.00,Rainwise IP-100,2013-04-29 11:58:00,
2013-04-29 07:03:00,53.0,52.0,29.99,SW,225,0.0,0.0,97,0.00,,,0.00,Rainwise IP-100,2013-04-29 12:03:00,
2013-04-29 07:08:00,54.0,53.5,29.99,SW,225,0.0,0.0,97,0.00,,,0.00,Rainwise IP-100,2013-04-29 12:08:00,
2013-04-29 07:13:00,54.0,53.5,29.99,East,90,0.0,1.0,97,0.00,,,0.00,Rainwise IP-100,2013-04-29 12:13:00,
2013-04-29 07:18:00,54.0,53.5,29.99,NE,45,1.0,1.0,97,0.00,,,0.00,Rainwise IP-100,2013-04-29 12:18:00,
2013-04-29 07:23:00,54.0,53.5,30.00,NE,45,0.0,2.0,97,0.00,,,0.00,Rainwise IP-100,2013-04-29 12:23:00,
2013-04-29 07:28:00,55.0,54.5,30.00,NE,45,0.0,0.0,97,0.00,,,0.00,Rainwise IP-100,2013-04-29 12:28:00,
2013-04-29 07:33:00,56.0,55.0,30.00,NE,45,0.0,1.0,97,0.00,,,0.00,Rainwise IP-100,2013-04-29 12:33:00,
2013-04-29 07:38:00,56.0,55.0,30.00,East,90,2.0,3.0,97,0.00,,,0.00,Rainwise IP-100,2013-04-29 12:38:00,
2013-04-29 07:43:00,57.0,56.5,30.00,East,90,0.0,3.0,98,0.00,,,0.00,Rainwise IP-100,2013-04-29 12:43:00,
2013-04-29 07:48:00,57.0,56.5,30.00,East,90,1.0,4.0,98,0.00,,,0.00,Rainwise IP-100,2013-04-29 12:48:00,
2013-04-29 07:53:00,58.0,57.5,30.00,East,90,0.0,3.0,98,0.00,,,0.00,Rainwise IP-100,2013-04-29 12:53:00,
2013-04-29 07:58:00,58.0,57.5,30.00,NW,315,2.0,4.0,98,0.00,,,0.00,Rainwise IP-100,2013-04-29 12:58:00,
2013-04-29 08:03:00,58.0,57.5,30.00,SSE,157,0.0,4.0,98,0.00,,,0.00,Rainwise IP-100,2013-04-29 13:03:00,
2013-04-29 08:08:00,59.0,58.0,30.00,South,180,1.0,4.0,98,0.00,,,0.00,Rainwise IP-100,2013-04-29 13:08:00,
2013-04-29 08:13:00,59.0,58.0,30.01,SSE,157,1.0,3.0,98,0.00,,,0.00,Rainwise IP-100,2013-04-29 13:13:00,
2013-04-29 08:18:00,59.0,58.0,30.01,South,180,1.0,7.0,98,0.00,,,0.00,Rainwise IP-100,2013-04-29 13:18:00,
2013-04-29 08:23:00,60.0,59.5,30.01,SW,225,1.0,6.0,98,0.00,,,0.00,Rainwise IP-100,2013-04-29 13:23:00,
2013-04-29 08:28:00,60.0,59.5,30.01,NW,315,0.0,6.0,98,0.00,,,0.00,Rainwise IP-100,2013-04-29 13:28:00,
2013-04-29 08:33:00,60.0,59.5,30.01,NW,315,2.0,6.0,98,0.00,,,0.00,Rainwise IP-100,2013-04-29 13:33:00,
2013-04-29 08:38:00,62.0,61.5,30.01,SE,135,0.0,3.0,98,0.00,,,0.00,Rainwise IP-100,2013-04-29 13:38:00,
2013-04-29 08:43:00,61.0,60.5,30.01,SE,135,4.0,6.0,98,0.00,,,0.00,Rainwise IP-100,2013-04-29 13:43:00,
2013-04-29 08:48:00,62.0,61.5,30.01,South,180,0.0,5.0,98,0.00,,,0.00,Rainwise IP-100,2013-04-29 13:48:00,
2013-04-29 08:53:00,62.0,60.0,30.01,SSE,157,3.0,4.0,93,0.00,,,0.00,Rainwise IP-100,2013-04-29 13:53:00,
2013-04-29 08:58:00,61.0,56.0,30.01,South,180,3.0,7.0,84,0.00,,,0.00,Rainwise IP-100,2013-04-29 13:58:00,
2013-04-29 09:03:00,62.0,56.5,30.01,ESE,112,2.0,7.0,83,0.00,,,0.00,Rainwise IP-100,2013-04-29 14:03:00,
2013-04-29 09:08:00,62.0,56.0,30.01,SW,225,2.0,6.0,80,0.00,,,0.00,Rainwise IP-100,2013-04-29 14:08:00,
2013-04-29 09:13:00,63.0,56.0,30.01,SE,135,0.0,8.0,78,0.00,,,0.00,Rainwise IP-100,2013-04-29 14:13:00,
2013-04-29 09:18:00,64.0,56.5,30.01,SW,225,4.0,7.0,77,0.00,,,0.00,Rainwise IP-100,2013-04-29 14:18:00,
2013-04-29 09:23:00,64.0,56.0,30.01,SSE,157,0.0,9.0,75,0.00,,,0.00,Rainwise IP-100,2013-04-29 14:23:00,
2013-04-29 09:28:00,62.0,53.5,30.01,SSE,157,6.0,7.0,74,0.00,,,0.00,Rainwise IP-100,2013-04-29 14:28:00,
2013-04-29 09:33:00,63.0,56.0,30.02,SSE,157,3.0,11.0,78,0.00,,,0.00,Rainwise IP-100,2013-04-29 14:33:00,
2013-04-29 09:38:00,63.0,55.0,30.02,SW,225,4.0,8.0,75,0.00,,,0.00,Rainwise IP-100,2013-04-29 14:38:00,
2013-04-29 09:43:00,63.0,55.0,30.01,SE,135,2.0,9.0,75,0.00,,,0.00,Rainwise IP-100,2013-04-29 14:43:00,
2013-04-29 09:48:00,64.0,54.5,30.01,SSW,202,2.0,6.0,71,0.00,,,0.00,Rainwise IP-100,2013-04-29 14:48:00,
2013-04-29 09:53:00,64.0,54.5,30.01,South,180,3.0,7.0,72,0.00,,,0.00,Rainwise IP-100,2013-04-29 14:53:00,
2013-04-29 09:58:00,65.0,54.5,30.01,East,90,4.0,6.0,69,0.00,,,0.00,Rainwise IP-100,2013-04-29 14:58:00,
2013-04-29 10:03:00,65.0,53.5,30.01,SW,225,2.0,7.0,66,0.00,,,0.00,Rainwise IP-100,2013-04-29 15:03:00,
2013-04-29 10:08:00,66.0,54.0,30.01,South,180,1.0,7.0,66,0.00,,,0.00,Rainwise IP-100,2013-04-29 15:08:00,
2013-04-29 10:13:00,66.0,52.0,30.01,South,180,3.0,8.0,61,0.00,,,0.00,Rainwise IP-100,2013-04-29 15:13:00,
2013-04-29 10:18:00,67.0,54.0,30.01,SE,135,2.0,6.0,62,0.00,,,0.00,Rainwise IP-100,2013-04-29 15:18:00,
2013-04-29 10:23:00,65.0,50.5,30.01,SE,135,6.0,8.0,60,0.00,,,0.00,Rainwise IP-100,2013-04-29 15:23:00,
2013-04-29 10:28:00,66.0,53.0,30.01,SSW,202,6.0,8.0,63,0.00,,,0.00,Rainwise IP-100,2013-04-29 15:28:00,
2013-04-29 10:33:00,68.0,53.5,30.00,SE,135,3.0,7.0,59,0.00,,,0.00,Rainwise IP-100,2013-04-29 15:33:00,
2013-04-29 10:38:00,67.0,53.5,30.00,SSW,202,5.0,8.0,61,0.00,,,0.00,Rainwise IP-100,2013-04-29 15:38:00,
2013-04-29 10:43:00,67.0,52.0,30.01,SSE,157,6.0,8.0,58,0.00,,,0.00,Rainwise IP-100,2013-04-29 15:43:00,
2013-04-29 10:48:00,68.0,53.0,30.01,West,270,3.0,9.0,58,0.00,,,0.00,Rainwise IP-100,2013-04-29 15:48:00,
2013-04-29 10:53:00,70.0,53.5,29.99,SSW,202,1.0,6.0,56,0.00,,,0.00,Rainwise IP-100,2013-04-29 15:53:00,
2013-04-29 10:58:00,70.0,52.0,29.99,West,270,0.0,5.0,53,0.00,,,0.00,Rainwise IP-100,2013-04-29 15:58:00,
2013-04-29 11:03:00,70.0,53.5,29.99,SE,135,4.0,7.0,55,0.00,,,0.00,Rainwise IP-100,2013-04-29 16:03:00,
2013-04-29 11:08:00,67.0,50.0,29.99,SE,135,10.0,12.0,54,0.00,,,0.00,Rainwise IP-100,2013-04-29 16:08:00,
2013-04-29 11:13:00,70.0,54.5,29.99,SE,135,4.0,10.0,58,0.00,,,0.00,Rainwise IP-100,2013-04-29 16:13:00,
2013-04-29 11:18:00,69.0,52.0,29.99,ESE,112,5.0,9.0,55,0.00,,,0.00,Rainwise IP-100,2013-04-29 16:18:00,
2013-04-29 11:23:00,68.0,51.0,30.00,SSW,202,0.0,7.0,55,0.00,,,0.00,Rainwise IP-100,2013-04-29 16:23:00,
2013-04-29 11:28:00,69.0,52.0,30.00,ESE,112,4.0,7.0,55,0.00,,,0.00,Rainwise IP-100,2013-04-29 16:28:00,
2013-04-29 11:33:00,70.0,52.0,29.99,South,180,6.0,8.0,53,0.00,,,0.00,Rainwise IP-100,2013-04-29 16:33:00,
2013-04-29 11:38:00,68.0,50.5,29.99,ESE,112,9.0,9.0,53,0.00,,,0.00,Rainwise IP-100,2013-04-29 16:38:00,
2013-04-29 11:43:00,70.0,53.0,29.99,WSW,247,3.0,9.0,54,0.00,,,0.00,Rainwise IP-100,2013-04-29 16:43:00,
2013-04-29 11:48:00,69.0,50.0,29.99,SW,225,5.0,6.0,51,0.00,,,0.00,Rainwise IP-100,2013-04-29 16:48:00,
2013-04-29 11:53:00,69.0,50.5,29.99,SW,225,2.0,9.0,52,0.00,,,0.00,Rainwise IP-100,2013-04-29 16:53:00,
2013-04-29 11:58:00,70.0,51.0,29.99,SE,135,1.0,8.0,51,0.00,,,0.00,Rainwise IP-100,2013-04-29 16:58:00,
2013-04-29 12:03:00,70.0,50.0,29.97,WSW,247,4.0,5.0,48,0.00,,,0.00,Rainwise IP-100,2013-04-29 17:03:00,
2013-04-29 12:08:00,67.0,48.0,29.97,SE,135,7.0,9.0,51,0.00,,,0.00,Rainwise IP-100,2013-04-29 17:08:00,
2013-04-29 12:13:00,71.0,53.0,29.97,East,90,0.0,8.0,53,0.00,,,0.00,Rainwise IP-100,2013-04-29 17:13:00,
2013-04-29 12:18:00,72.0,53.5,29.97,SE,135,0.0,6.0,52,0.00,,,0.00,Rainwise IP-100,2013-04-29 17:18:00,
2013-04-29 12:23:00,71.0,53.0,29.97,SW,225,1.0,8.0,52,0.00,,,0.00,Rainwise IP-100,2013-04-29 17:23:00,
2013-04-29 12:28:00,71.0,52.0,29.97,NW,315,3.0,7.0,51,0.00,,,0.00,Rainwise IP-100,2013-04-29 17:28:00,
2013-04-29 12:33:00,72.0,50.5,29.95,NE,45,0.0,7.0,47,0.00,,,0.00,Rainwise IP-100,2013-04-29 17:33:00,
2013-04-29 12:38:00,72.0,50.0,29.95,South,180,4.0,6.0,46,0.00,,,0.00,Rainwise IP-100,2013-04-29 17:38:00,
2013-04-29 12:43:00,73.0,52.0,29.95,SSW,202,3.0,6.0,47,0.00,,,0.00,Rainwise IP-100,2013-04-29 17:43:00,
2013-04-29 12:48:00,72.0,51.0,29.95,WNW,292,0.0,9.0,48,0.00,,,0.00,Rainwise IP-100,2013-04-29 17:48:00,
2013-04-29 12:53:00,73.0,50.5,29.95,SW,225,1.0,8.0,45,0.00,,,0.00,Rainwise IP-100,2013-04-29 17:53:00,
2013-04-29 12:58:00,74.0,51.0,29.95,South,180,0.0,6.0,45,0.00,,,0.00,Rainwise IP-100,2013-04-29 17:58:00,
2013-04-29 13:03:00,73.0,52.0,29.95,NNW,337,3.0,7.0,47,0.00,,,0.00,Rainwise IP-100,2013-04-29 18:03:00,
2013-04-29 13:08:00,72.0,52.0,29.95,NW,315,3.0,7.0,49,0.00,,,0.00,Rainwise IP-100,2013-04-29 18:08:00,
2013-04-29 13:13:00,74.0,53.0,29.94,SE,135,1.0,4.0,47,0.00,,,0.00,Rainwise IP-100,2013-04-29 18:13:00,
2013-04-29 13:18:00,73.0,52.0,29.94,North,360,4.0,7.0,48,0.00,,,0.00,Rainwise IP-100,2013-04-29 18:18:00,
2013-04-29 13:23:00,74.0,53.5,29.95,SSW,202,2.0,7.0,48,0.00,,,0.00,Rainwise IP-100,2013-04-29 18:23:00,
2013-04-29 13:28:00,74.0,53.0,29.95,SW,225,0.0,6.0,47,0.00,,,0.00,Rainwise IP-100,2013-04-29 18:28:00,
2013-04-29 13:33:00,73.0,52.0,29.93,NE,45,6.0,6.0,48,0.00,,,0.00,Rainwise IP-100,2013-04-29 18:33:00,
2013-04-29 13:38:00,73.0,52.0,29.93,North,360,6.0,7.0,48,0.00,,,0.00,Rainwise IP-100,2013-04-29 18:38:00,
2013-04-29 13:43:00,72.0,51.0,29.95,NE,45,1.0,8.0,48,0.00,,,0.00,Rainwise IP-100,2013-04-29 18:43:00,
2013-04-29 13:48:00,73.0,52.0,29.95,NNE,22,4.0,6.0,48,0.00,,,0.00,Rainwise IP-100,2013-04-29 18:48:00,
2013-04-29 13:53:00,73.0,52.0,29.93,SW,225,3.0,7.0,47,0.00,,,0.00,Rainwise IP-100,2013-04-29 18:53:00,
2013-04-29 13:58:00,71.0,50.5,29.93,ESE,112,6.0,7.0,49,0.00,,,0.00,Rainwise IP-100,2013-04-29 18:58:00,
2013-04-29 14:03:00,73.0,53.5,29.94,ENE,67,5.0,7.0,50,0.00,,,0.00,Rainwise IP-100,2013-04-29 19:03:00,
2013-04-29 14:08:00,73.0,53.0,29.94,East,90,6.0,8.0,49,0.00,,,0.00,Rainwise IP-100,2013-04-29 19:08:00,
2013-04-29 14:13:00,73.0,52.0,29.93,South,180,0.0,9.0,48,0.00,,,0.00,Rainwise IP-100,2013-04-29 19:13:00,
2013-04-29 14:18:00,73.0,52.0,29.93,SE,135,2.0,9.0,48,0.00,,,0.00,Rainwise IP-100,2013-04-29 19:18:00,
2013-04-29 14:23:00,75.0,53.5,29.91,NE,45,2.0,8.0,47,0.00,,,0.00,Rainwise IP-100,2013-04-29 19:23:00,
2013-04-29 14:28:00,76.0,53.5,29.91,ENE,67,2.0,5.0,45,0.00,,,0.00,Rainwise IP-100,2013-04-29 19:28:00,
2013-04-29 14:33:00,77.0,54.0,29.90,West,270,2.0,5.0,45,0.00,,,0.00,Rainwise IP-100,2013-04-29 19:33:00,
2013-04-29 14:38:00,77.0,52.0,29.90,NE,45,3.0,4.0,42,0.00,,,0.00,Rainwise IP-100,2013-04-29 19:38:00,
2013-04-29 14:43:00,76.0,53.5,29.92,NNW,337,2.0,7.0,46,0.00,,,0.00,Rainwise IP-100,2013-04-29 19:43:00,
2013-04-29 14:48:00,77.0,53.5,29.92,South,180,2.0,5.0,44,0.00,,,0.00,Rainwise IP-100,2013-04-29 19:48:00,
2013-04-29 14:53:00,77.0,53.5,29.90,ESE,112,2.0,5.0,44,0.00,,,0.00,Rainwise IP-100,2013-04-29 19:53:00,
2013-04-29 14:58:00,78.0,53.5,29.90,NE,45,0.0,7.0,42,0.00,,,0.00,Rainwise IP-100,2013-04-29 19:58:00,
2013-04-29 15:03:00,79.0,53.5,29.89,WNW,292,4.0,7.0,41,0.00,,,0.00,Rainwise IP-100,2013-04-29 20:03:00,
2013-04-29 15:08:00,77.0,52.0,29.89,South,180,1.0,7.0,42,0.00,,,0.00,Rainwise IP-100,2013-04-29 20:08:00,
2013-04-29 15:13:00,76.0,52.0,29.90,NE,45,1.0,7.0,43,0.00,,,0.00,Rainwise IP-100,2013-04-29 20:13:00,
2013-04-29 15:18:00,76.0,53.0,29.90,ESE,112,1.0,7.0,44,0.00,,,0.00,Rainwise IP-100,2013-04-29 20:18:00,
2013-04-29 15:23:00,77.0,53.5,29.89,South,180,1.0,6.0,44,0.00,,,0.00,Rainwise IP-100,2013-04-29 20:23:00,
2013-04-29 15:28:00,77.0,53.5,29.89,SSW,202,2.0,7.0,44,0.00,,,0.00,Rainwise IP-100,2013-04-29 20:28:00,
2013-04-29 15:33:00,78.0,53.5,29.89,NE,45,6.0,6.0,42,0.00,,,0.00,Rainwise IP-100,2013-04-29 20:33:00,
2013-04-29 15:38:00,76.0,50.0,29.89,SSW,202,4.0,6.0,40,0.00,,,0.00,Rainwise IP-100,2013-04-29 20:38:00,
2013-04-29 15:43:00,77.0,52.0,29.89,SE,135,9.0,9.0,42,0.00,,,0.00,Rainwise IP-100,2013-04-29 20:43:00,
2013-04-29 15:48:00,77.0,52.0,29.89,South,180,3.0,9.0,42,0.00,,,0.00,Rainwise IP-100,2013-04-29 20:48:00,
2013-04-29 15:53:00,76.0,52.0,29.89,NNW,337,2.0,7.0,43,0.00,,,0.00,Rainwise IP-100,2013-04-29 20:53:00,
2013-04-29 15:58:00,78.0,53.0,29.89,South,180,3.0,3.0,41,0.00,,,0.00,Rainwise IP-100,2013-04-29 20:58:00,
2013-04-29 16:03:00,78.0,52.0,29.88,SSE,157,2.0,4.0,40,0.00,,,0.00,Rainwise IP-100,2013-04-29 21:03:00,
2013-04-29 16:08:00,77.0,52.0,29.88,West,270,3.0,7.0,41,0.00,,,0.00,Rainwise IP-100,2013-04-29 21:08:00,
2013-04-29 16:13:00,78.0,54.0,29.88,NE,45,4.0,6.0,43,0.00,,,0.00,Rainwise IP-100,2013-04-29 21:13:00,
2013-04-29 16:18:00,76.0,52.0,29.88,NW,315,2.0,5.0,43,0.00,,,0.00,Rainwise IP-100,2013-04-29 21:18:00,
2013-04-29 16:23:00,79.0,54.0,29.87,SW,225,0.0,5.0,42,0.00,,,0.00,Rainwise IP-100,2013-04-29 21:23:00,
2013-04-29 16:28:00,78.0,52.0,29.87,NNE,22,1.0,4.0,40,0.00,,,0.00,Rainwise IP-100,2013-04-29 21:28:00,
2013-04-29 16:33:00,79.0,53.5,29.87,WNW,292,1.0,6.0,41,0.00,,,0.00,Rainwise IP-100,2013-04-29 21:33:00,
2013-04-29 16:38:00,78.0,54.5,29.87,SSE,157,3.0,6.0,44,0.00,,,0.00,Rainwise IP-100,2013-04-29 21:38:00,
2013-04-29 16:43:00,79.0,53.0,29.87,SW,225,0.0,4.0,40,0.00,,,0.00,Rainwise IP-100,2013-04-29 21:43:00,
2013-04-29 16:48:00,79.0,53.0,29.86,ENE,67,2.0,6.0,40,0.00,,,0.00,Rainwise IP-100,2013-04-29 21:48:00,
2013-04-29 16:53:00,78.0,53.0,29.87,NW,315,4.0,6.0,41,0.00,,,0.00,Rainwise IP-100,2013-04-29 21:53:00,
2013-04-29 16:58:00,78.0,53.5,29.87,SSW,202,0.0,6.0,42,0.00,,,0.00,Rainwise IP-100,2013-04-29 21:58:00,
2013-04-29 17:03:00,79.0,53.0,29.86,WSW,247,0.0,3.0,40,0.00,,,0.00,Rainwise IP-100,2013-04-29 22:03:00,
2013-04-29 17:08:00,78.0,53.0,29.86,SW,225,3.0,4.0,41,0.00,,,0.00,Rainwise IP-100,2013-04-29 22:08:00,
2013-04-29 17:13:00,79.0,53.5,29.86,West,270,0.0,5.0,41,0.00,,,0.00,Rainwise IP-100,2013-04-29 22:13:00,
2013-04-29 17:18:00,79.0,52.0,29.86,SE,135,0.0,4.0,39,0.00,,,0.00,Rainwise IP-100,2013-04-29 22:18:00,
2013-04-29 17:23:00,79.0,52.0,29.86,East,90,1.0,4.0,39,0.00,,,0.00,Rainwise IP-100,2013-04-29 22:23:00,
2013-04-29 17:28:00,79.0,53.0,29.86,WNW,292,3.0,4.0,40,0.00,,,0.00,Rainwise IP-100,2013-04-29 22:28:00,
2013-04-29 17:33:00,78.0,53.5,29.87,South,180,1.0,4.0,42,0.00,,,0.00,Rainwise IP-100,2013-04-29 22:33:00,
2013-04-29 17:38:00,77.0,53.5,29.87,SE,135,0.0,4.0,44,0.00,,,0.00,Rainwise IP-100,2013-04-29 22:38:00,
2013-04-29 17:43:00,78.0,54.0,29.87,SW,225,0.0,3.0,43,0.00,,,0.00,Rainwise IP-100,2013-04-29 22:43:00,
2013-04-29 17:48:00,77.0,53.0,29.87,West,270,0.0,5.0,43,0.00,,,0.00,Rainwise IP-100,2013-04-29 22:48:00,
2013-04-29 17:53:00,75.0,52.0,29.87,SSE,157,4.0,6.0,44,0.00,,,0.00,Rainwise IP-100,2013-04-29 22:53:00,
2013-04-29 17:58:00,74.0,52.0,29.87,SSE,157,2.0,6.0,46,0.00,,,0.00,Rainwise IP-100,2013-04-29 22:58:00,
2013-04-29 18:03:00,74.0,53.5,29.87,SSE,157,1.0,2.0,48,0.00,,,0.00,Rainwise IP-100,2013-04-29 23:03:00,
2013-04-29 18:08:00,73.0,52.0,29.87,South,180,3.0,6.0,48,0.00,,,0.00,Rainwise IP-100,2013-04-29 23:08:00,
2013-04-29 18:13:00,73.0,53.0,29.87,SW,225,6.0,7.0,49,0.00,,,0.00,Rainwise IP-100,2013-04-29 23:13:00,
2013-04-29 18:18:00,72.0,53.0,29.87,SW,225,4.0,7.0,51,0.00,,,0.00,Rainwise IP-100,2013-04-29 23:18:00,
2013-04-29 18:23:00,73.0,54.0,29.87,South,180,0.0,5.0,51,0.00,,,0.00,Rainwise IP-100,2013-04-29 23:23:00,
2013-04-29 18:28:00,73.0,52.0,29.87,South,180,2.0,2.0,48,0.00,,,0.00,Rainwise IP-100,2013-04-29 23:28:00,
2013-04-29 18:33:00,73.0,53.0,29.87,WSW,247,2.0,7.0,49,0.00,,,0.00,Rainwise IP-100,2013-04-29 23:33:00,
2013-04-29 18:38:00,73.0,53.0,29.87,South,180,0.0,4.0,49,0.00,,,0.00,Rainwise IP-100,2013-04-29 23:38:00,
2013-04-29 18:43:00,73.0,53.0,29.86,SW,225,1.0,4.0,49,0.00,,,0.00,Rainwise IP-100,2013-04-29 23:43:00,
2013-04-29 18:48:00,73.0,53.5,29.86,WSW,247,0.0,5.0,50,0.00,,,0.00,Rainwise IP-100,2013-04-29 23:48:00,
2013-04-29 18:53:00,73.0,53.0,29.86,WSW,247,0.0,2.0,49,0.00,,,0.00,Rainwise IP-100,2013-04-29 23:53:00,
2013-04-29 18:58:00,72.0,53.0,29.86,South,180,0.0,5.0,50,0.00,,,0.00,Rainwise IP-100,2013-04-29 23:58:00,
2013-04-29 19:03:00,72.0,53.5,29.86,South,180,0.0,2.0,52,0.00,,,0.00,Rainwise IP-100,2013-04-30 00:03:00,
2013-04-29 19:08:00,71.0,53.0,29.86,South,180,2.0,3.0,53,0.00,,,0.00,Rainwise IP-100,2013-04-30 00:08:00,
2013-04-29 19:13:00,71.0,53.5,29.86,South,180,0.0,3.0,54,0.00,,,0.00,Rainwise IP-100,2013-04-30 00:13:00,
2013-04-29 19:18:00,70.0,53.5,29.86,South,180,1.0,3.0,55,0.00,,,0.00,Rainwise IP-100,2013-04-30 00:18:00,
2013-04-29 19:23:00,70.0,53.5,29.86,South,180,2.0,3.0,56,0.00,,,0.00,Rainwise IP-100,2013-04-30 00:23:00,
2013-04-29 19:28:00,69.0,53.5,29.86,South,180,1.0,3.0,58,0.00,,,0.00,Rainwise IP-100,2013-04-30 00:28:00,
2013-04-29 19:33:00,69.0,54.5,29.86,South,180,6.0,6.0,61,0.00,,,0.00,Rainwise IP-100,2013-04-30 00:33:00,
2013-04-29 19:38:00,68.0,54.5,29.86,South,180,2.0,6.0,62,0.00,,,0.00,Rainwise IP-100,2013-04-30 00:38:00,
2013-04-29 19:43:00,68.0,54.5,29.86,South,180,0.0,5.0,63,0.00,,,0.00,Rainwise IP-100,2013-04-30 00:43:00,
2013-04-29 19:49:00,67.0,55.0,29.87,South,180,2.0,2.0,65,0.00,,,0.00,Rainwise IP-100,2013-04-30 00:49:00,
2013-04-29 19:54:00,67.0,55.0,29.87,South,180,0.0,2.0,66,0.00,,,0.00,Rainwise IP-100,2013-04-30 00:54:00,
2013-04-29 19:59:00,66.0,55.0,29.87,South,180,1.0,2.0,68,0.00,,,0.00,Rainwise IP-100,2013-04-30 00:59:00,
2013-04-29 20:04:00,66.0,55.0,29.87,South,180,0.0,2.0,68,0.00,,,0.00,Rainwise IP-100,2013-04-30 01:04:00,
2013-04-29 20:09:00,66.0,56.0,29.87,South,180,0.0,0.0,70,0.00,,,0.00,Rainwise IP-100,2013-04-30 01:09:00,
2013-04-29 20:14:00,65.0,56.0,29.88,SE,135,4.0,0.0,73,0.00,,,0.00,Rainwise IP-100,2013-04-30 01:14:00,
2013-04-29 20:19:00,65.0,54.5,29.88,South,180,3.0,4.0,70,0.00,,,0.00,Rainwise IP-100,2013-04-30 01:19:00,
2013-04-29 20:24:00,66.0,55.0,29.87,SSE,157,3.0,6.0,68,0.00,,,0.00,Rainwise IP-100,2013-04-30 01:24:00,
2013-04-29 20:29:00,65.0,54.5,29.87,ESE,112,0.0,6.0,69,0.00,,,0.00,Rainwise IP-100,2013-04-30 01:29:00,
2013-04-29 20:34:00,65.0,55.0,29.88,SSE,157,3.0,0.0,71,0.00,,,0.00,Rainwise IP-100,2013-04-30 01:34:00,
2013-04-29 20:39:00,65.0,55.0,29.88,SE,135,2.0,5.0,71,0.00,,,0.00,Rainwise IP-100,2013-04-30 01:39:00,
2013-04-29 20:44:00,65.0,54.5,29.88,SE,135,0.0,2.0,70,0.00,,,0.00,Rainwise IP-100,2013-04-30 01:44:00,
2013-04-29 20:49:00,64.0,54.5,29.88,South,180,0.0,1.0,71,0.00,,,0.00,Rainwise IP-100,2013-04-30 01:49:00,
2013-04-29 20:54:00,64.0,54.0,29.89,SE,135,0.0,2.0,70,0.00,,,0.00,Rainwise IP-100,2013-04-30 01:54:00,
2013-04-29 20:59:00,64.0,53.5,29.89,SE,135,2.0,6.0,69,0.00,,,0.00,Rainwise IP-100,2013-04-30 01:59:00,
2013-04-29 21:04:00,64.0,54.0,29.89,South,180,2.0,4.0,70,0.00,,,0.00,Rainwise IP-100,2013-04-30 02:04:00,
2013-04-29 21:09:00,64.0,53.5,29.89,ESE,112,5.0,6.0,69,0.00,,,0.00,Rainwise IP-100,2013-04-30 02:09:00,
2013-04-29 21:14:00,64.0,54.0,29.89,SE,135,2.0,5.0,70,0.00,,,0.00,Rainwise IP-100,2013-04-30 02:14:00,
2013-04-29 21:19:00,64.0,54.0,29.89,South,180,2.0,4.0,70,0.00,,,0.00,Rainwise IP-100,2013-04-30 02:19:00,
2013-04-29 21:24:00,64.0,53.5,29.89,South,180,3.0,5.0,69,0.00,,,0.00,Rainwise IP-100,2013-04-30 02:24:00,
2013-04-29 21:29:00,64.0,54.0,29.89,SSW,202,0.0,6.0,70,0.00,,,0.00,Rainwise IP-100,2013-04-30 02:29:00,
2013-04-29 21:34:00,63.0,53.5,29.89,South,180,2.0,6.0,71,0.00,,,0.00,Rainwise IP-100,2013-04-30 02:34:00,
2013-04-29 21:39:00,63.0,53.5,29.89,SE,135,3.0,5.0,71,0.00,,,0.00,Rainwise IP-100,2013-04-30 02:39:00,
2013-04-29 21:44:00,64.0,54.5,29.89,South,180,2.0,6.0,71,0.00,,,0.00,Rainwise IP-100,2013-04-30 02:44:00,
2013-04-29 21:49:00,64.0,54.0,29.89,South,180,3.0,7.0,70,0.00,,,0.00,Rainwise IP-100,2013-04-30 02:49:00,
2013-04-29 21:54:00,64.0,54.5,29.89,South,180,4.0,6.0,71,0.00,,,0.00,Rainwise IP-100,2013-04-30 02:54:00,
2013-04-29 21:59:00,63.0,54.0,29.89,SSE,157,3.0,6.0,72,0.00,,,0.00,Rainwise IP-100,2013-04-30 02:59:00,
2013-04-29 22:04:00,63.0,54.0,29.90,SE,135,1.0,7.0,72,0.00,,,0.00,Rainwise IP-100,2013-04-30 03:04:00,
2013-04-29 22:09:00,63.0,54.0,29.90,SE,135,0.0,2.0,73,0.00,,,0.00,Rainwise IP-100,2013-04-30 03:09:00,
2013-04-29 22:14:00,63.0,54.0,29.89,SSE,157,3.0,4.0,73,0.00,,,0.00,Rainwise IP-100,2013-04-30 03:14:00,
2013-04-29 22:19:00,62.0,53.5,29.89,SSE,157,3.0,4.0,74,0.00,,,0.00,Rainwise IP-100,2013-04-30 03:19:00,
2013-04-29 22:24:00,62.0,54.0,29.90,South,180,2.0,5.0,75,0.00,,,0.00,Rainwise IP-100,2013-04-30 03:24:00,
2013-04-29 22:29:00,62.0,54.0,29.90,SE,135,1.0,4.0,75,0.00,,,0.00,Rainwise IP-100,2013-04-30 03:29:00,
2013-04-29 22:34:00,62.0,54.0,29.90,South,180,1.0,3.0,75,0.00,,,0.00,Rainwise IP-100,2013-04-30 03:34:00,
2013-04-29 22:39:00,61.0,53.5,29.90,South,180,2.0,5.0,75,0.00,,,0.00,Rainwise IP-100,2013-04-30 03:39:00,
2013-04-29 22:44:00,62.0,54.0,29.89,SSE,157,1.0,4.0,75,0.00,,,0.00,Rainwise IP-100,2013-04-30 03:44:00,
2013-04-29 22:49:00,61.0,53.5,29.89,SW,225,3.0,5.0,76,0.00,,,0.00,Rainwise IP-100,2013-04-30 03:49:00,
2013-04-29 22:54:00,62.0,54.5,29.89,SSE,157,0.0,6.0,76,0.00,,,0.00,Rainwise IP-100,2013-04-30 03:54:00,
2013-04-29 22:59:00,61.0,54.0,29.89,SSE,157,0.0,5.0,77,0.00,,,0.00,Rainwise IP-100,2013-04-30 03:59:00,
2013-04-29 23:01:00,61.0,54.0,29.89,SSE,157,2.0,4.0,78,0.00,,,0.00,Rainwise IP-100,2013-04-30 04:01:00,
2013-04-29 23:06:00,61.0,54.0,29.90,SE,135,2.0,4.0,78,0.00,,,0.00,Rainwise IP-100,2013-04-30 04:06:00,
2013-04-29 23:08:00,61.0,54.0,29.90,SE,135,4.0,4.0,78,0.00,,,0.00,Rainwise IP-100,2013-04-30 04:08:00,
2013-04-29 23:13:00,61.0,54.0,29.90,South,180,3.0,6.0,78,0.00,,,0.00,Rainwise IP-100,2013-04-30 04:13:00,
2013-04-29 23:18:00,61.0,54.0,29.90,SSE,157,0.0,7.0,77,0.00,,,0.00,Rainwise IP-100,2013-04-30 04:18:00,
2013-04-29 23:23:00,61.0,54.0,29.90,South,180,0.0,7.0,78,0.00,,,0.00,Rainwise IP-100,2013-04-30 04:23:00,
2013-04-29 23:28:00,61.0,54.5,29.90,SSE,157,3.0,5.0,79,0.00,,,0.00,Rainwise IP-100,2013-04-30 04:28:00,
2013-04-29 23:33:00,61.0,54.0,29.90,SSE,157,1.0,7.0,78,0.00,,,0.00,Rainwise IP-100,2013-04-30 04:33:00,
2013-04-29 23:38:00,61.0,54.0,29.90,South,180,4.0,6.0,78,0.00,,,0.00,Rainwise IP-100,2013-04-30 04:38:00,
2013-04-29 23:43:00,61.0,54.0,29.90,South,180,1.0,6.0,78,0.00,,,0.00,Rainwise IP-100,2013-04-30 04:43:00,
2013-04-29 23:48:00,61.0,54.5,29.90,SSE,157,3.0,4.0,79,0.00,,,0.00,Rainwise IP-100,2013-04-30 04:48:00,
2013-04-29 23:53:00,60.0,53.5,29.90,South,180,0.0,4.0,79,0.00,,,0.00,Rainwise IP-100,2013-04-30 04:53:00,
2013-04-29 23:58:00,61.0,54.5,29.90,South,180,2.0,5.0,79,0.00,,,0.00,Rainwise IP-100,2013-04-30 04:58:00,